• Join FlightAware (Why Join?)
  • Login
  • US Flag 
08:56PM EDT


 

Airport Tracker/Info


-or-


 

Live Flight TrackerFlight Track Log ✈ UPS1121 ✈ 16-Aug-2013 ✈ KBDL - KSDF

Flight Track Log - Related Links

Times and Time Zones

All times are in EDT time to prevent confusion due to time zone crossing. See the UPS1121 flight status page for this flight to view local times or setup timezone preferences in your user account.

Time Position Orientation Groundspeed Altitude Reporting Facility
EDT Latitude Longitude Course Direction KTS MPH feet Rate Location/Type
11:13PM 41.9458 -72.7025 324° Northwest 154 177 1,200  Level Boston Center
11:14PM 41.9894 -72.7444 324° Northwest 191 220 3,100 2,100 Climbing Boston Center
11:15PM 42.0497 -72.7839 334° Northwest 216 249 5,400 2,640 Climbing Boston Center
11:16PM 42.1100 -72.8236 334° Northwest 256 295 8,400 1,980 Climbing Boston Center
11:21PM 42.2430 -73.4780 334° Northwest 411 473 18,800 1,800 Climbing FlightAware
11:22PM 42.2350 -73.5700 263° West 416 479 19,900 1,860 Climbing FlightAware
11:23PM 42.2260 -73.6630 263° West 420 483 21,100 1,920 Climbing FlightAware
11:23PM 42.2180 -73.7490 263° West 424 488 22,100 1,680 Climbing FlightAware
11:24PM 42.2090 -73.8540 263° West 345 397 23,200 1,020 Climbing FlightAware
11:24PM 42.2010 -73.9420 263° West 428 493 23,500 1,440 Climbing FlightAware
11:25PM 42.1910 -74.0420 262° West 533 613 24,900 1,680 Climbing FlightAware
11:27PM 42.1570 -74.3860 263° West 447 514 28,000 1,500 Climbing FlightAware
11:28PM 42.1480 -74.4860 263° West 447 514 28,900 1,560 Climbing FlightAware
11:28PM 42.1434 -74.5277 262° West 445 512 29,300 1,440 Climbing FlightAware ADS-B
11:28PM 42.1348 -74.6126 262° West 441 507 30,000 660 Climbing FlightAware ADS-B
11:29PM 42.1245 -74.7133 262° West 441 507 30,100  Climbing FlightAware ADS-B
11:30PM 42.1145 -74.8111 262° West 447 514 30,000 -120 Descending FlightAware ADS-B
11:30PM 42.1057 -74.8970 262° West 451 519 30,000  Level FlightAware ADS-B
11:31PM 42.0963 -74.9881 262° West 451 519 30,000  Level FlightAware ADS-B
11:31PM 42.0831 -75.1154 262° West 451 519 30,000  Level FlightAware ADS-B
11:32PM 42.0735 -75.2070 262° West 451 519 30,000  Level FlightAware ADS-B
11:33PM 42.0600 -75.3020 259° West 450 518 30,000  Level FlightAware
11:33PM 42.0420 -75.3636 249° West 451 519 30,000  Level FlightAware ADS-B
11:34PM 41.9944 -75.4806 241° Southwest 453 521 30,000  Level FlightAware ADS-B
11:34PM 41.9621 -75.5588 241° Southwest 452 520 30,000  Level FlightAware ADS-B
11:35PM 41.9310 -75.6510 246° West 450 518 30,000 60 Level FlightAware
11:36PM 41.9040 -75.7648 252° West 451 519 30,100  Climbing FlightAware ADS-B
11:36PM 41.8856 -75.8463 253° West 449 517 30,000 -120 Descending FlightAware ADS-B
11:37PM 41.8641 -75.9427 253° West 447 514 30,000  Level FlightAware ADS-B
11:37PM 41.8459 -76.0240 253° West 447 514 30,000  Level FlightAware ADS-B
11:38PM 41.8280 -76.1044 253° West 447 514 30,000  Level FlightAware ADS-B
11:38PM 41.8097 -76.1855 253° West 447 514 30,000  Level FlightAware ADS-B
11:39PM 41.7918 -76.2651 253° West 446 513 30,000  Level FlightAware ADS-B
11:39PM 41.7729 -76.3488 253° West 445 512 30,000  Level FlightAware ADS-B
11:40PM 41.7533 -76.4354 253° West 446 513 30,000  Level FlightAware ADS-B
11:40PM 41.7349 -76.5165 253° West 446 513 30,000  Level FlightAware ADS-B
11:41PM 41.7106 -76.6214 253° West 446 513 30,000  Level FlightAware ADS-B
11:41PM 41.6921 -76.7010 253° West 446 513 30,000  Level FlightAware ADS-B
11:42PM 41.6554 -76.8586 253° West 445 512 30,000  Level FlightAware ADS-B
11:43PM 41.6363 -76.9402 253° West 446 513 30,000  Level FlightAware ADS-B
11:44PM 41.6132 -77.0391 253° West 446 513 30,000  Level FlightAware ADS-B
11:44PM 41.5940 -77.1210 253° West 446 513 30,000  Level FlightAware
11:45PM 41.5720 -77.2150 253° West 446 513 30,000  Level FlightAware
11:45PM 41.5510 -77.3050 253° West 445 512 30,000  Level FlightAware
11:46PM 41.5280 -77.4010 252° West 445 512 30,000  Level FlightAware
11:46PM 41.5114 -77.4723 253° West 445 512 30,000  Level FlightAware ADS-B
11:47PM 41.4850 -77.5820 252° West 445 512 30,000  Level FlightAware
11:48PM 41.4460 -77.6880 244° Southwest 448 516 30,000  Level FlightAware
11:48PM 41.4410 -77.7680 265° West 444 511 30,000  Level FlightAware
11:49PM 41.4190 -77.8590 252° West 444 511 30,000  Level FlightAware
11:49PM 41.3970 -77.9500 252° West 445 512 30,000  Level FlightAware
11:50PM 41.3720 -78.0400 250° West 445 512 30,000  Level FlightAware
11:51PM 41.3470 -78.1240 248° West 445 512 30,000  Level FlightAware
11:51PM 41.3180 -78.2180 248° West 445 512 30,000  Level FlightAware
11:52PM 41.2900 -78.3070 247° West 447 514 30,000  Level FlightAware
11:52PM 41.2620 -78.3950 247° West 447 514 30,000  Level FlightAware
11:53PM 41.2340 -78.4830 247° West 447 514 30,000  Level FlightAware
11:53PM 41.2080 -78.5640 247° West 446 513 30,000  Level FlightAware
11:54PM 41.1770 -78.6600 247° West 447 514 30,000  Level FlightAware
11:55PM 41.1490 -78.7470 247° West 448 516 30,000  Level FlightAware
11:55PM 41.1160 -78.8530 248° West 448 516 30,000  Level FlightAware
11:56PM 41.0870 -78.9420 247° West 449 517 30,000  Level FlightAware
11:57PM 41.0550 -79.0400 247° West 449 517 30,000  Level FlightAware
11:57PM 41.0250 -79.1320 247° West 449 517 30,000  Level FlightAware
11:58PM 41.0020 -79.2030 247° West 450 518 30,000  Level FlightAware
11:58PM 40.9680 -79.3070 247° West 449 517 30,000  Level FlightAware
11:59PM 40.9440 -79.3820 247° West 448 516 30,000  Level FlightAware
11:59PM 40.9140 -79.4720 246° West 450 518 30,000  Level FlightAware
12:00AM 40.8810 -79.5730 247° West 450 518 30,000  Level FlightAware
12:01AM 40.8510 -79.6620 246° West 451 519 30,000  Level FlightAware
12:01AM 40.8210 -79.7520 246° West 450 518 30,000  Level FlightAware
12:02AM 40.7910 -79.8420 246° West 449 517 30,000  Level FlightAware
12:02AM 40.7620 -79.9290 246° West 449 517 30,000  Level FlightAware
12:03AM 40.7330 -80.0150 246° West 448 516 30,000  Level FlightAware
12:04AM 40.6990 -80.1140 246° West 449 517 30,000  Level FlightAware
12:04AM 40.6710 -80.1950 246° West 450 518 30,000  Level FlightAware
12:05AM 40.6410 -80.2850 246° West 449 517 30,000  Level FlightAware
12:05AM 40.6090 -80.3760 245° Southwest 449 517 30,000  Level FlightAware
12:06AM 40.5800 -80.4620 246° West 449 517 30,000  Level FlightAware
12:06AM 40.5500 -80.5490 246° West 451 519 30,000  Level FlightAware
12:07AM 40.5180 -80.6410 245° Southwest 451 519 30,000  Level FlightAware
12:08AM 40.4890 -80.7250 246° West 451 519 30,000  Level FlightAware
12:08AM 40.4580 -80.8140 245° Southwest 452 520 30,000  Level FlightAware
12:09AM 40.4270 -80.9060 246° West 452 520 30,000  Level FlightAware
12:09AM 40.3950 -80.9960 245° Southwest 454 522 30,000 60 Level FlightAware
12:10AM 40.3680 -81.0730 245° Southwest 455 524 30,100 60 Climbing FlightAware
12:11AM 40.3370 -81.1620 245° Southwest 455 524 30,100 -120 Level FlightAware
12:11AM 40.3030 -81.2600 246° West 458 527 30,000 -120 Descending FlightAware
12:12AM 40.2740 -81.3400 245° Southwest 457 526 30,000  Level FlightAware
12:12AM 40.2420 -81.4290 245° Southwest 453 521 30,000  Level FlightAware
12:13AM 40.2120 -81.5150 245° Southwest 451 519 30,000  Level FlightAware
12:13AM 40.1800 -81.6050 245° Southwest 451 519 30,000  Level FlightAware
12:14AM 40.1490 -81.6930 245° Southwest 451 519 30,000  Level FlightAware
12:15AM 40.1170 -81.7830 245° Southwest 452 520 30,000  Level FlightAware
12:15AM 40.0880 -81.8640 245° Southwest 453 521 30,000  Level FlightAware
12:16AM 40.0550 -81.9570 245° Southwest 453 521 30,000  Level FlightAware
12:16AM 40.0230 -82.0470 245° Southwest 455 524 30,000  Level FlightAware
12:17AM 39.9960 -82.1230 245° Southwest 455 524 30,000  Level FlightAware
12:18AM 39.9630 -82.2120 244° Southwest 456 525 30,000  Level FlightAware
12:18AM 39.9310 -82.3010 245° Southwest 455 524 30,000  Level FlightAware
12:19AM 39.8960 -82.3960 244° Southwest 457 526 30,000  Level FlightAware
12:19AM 39.8670 -82.4770 245° Southwest 458 527 30,000  Level FlightAware
12:20AM 39.8320 -82.5700 244° Southwest 459 528 30,000  Level FlightAware
12:20AM 39.8020 -82.6520 245° Southwest 459 528 30,000  Level FlightAware
12:21AM 39.7690 -82.7420 245° Southwest 459 528 30,000  Level FlightAware
12:22AM 39.7400 -82.8200 244° Southwest 460 529 30,000  Level FlightAware
12:22AM 39.7050 -82.9140 244° Southwest 461 531 30,000  Level FlightAware
12:23AM 39.6720 -83.0060 245° Southwest 460 529 30,000  Level FlightAware
12:23AM 39.6390 -83.0940 244° Southwest 460 529 30,000  Level FlightAware
12:24AM 39.6080 -83.1750 244° Southwest 460 529 30,000  Level FlightAware
12:25AM 39.5750 -83.2640 244° Southwest 460 529 30,000  Level FlightAware
12:25AM 39.5410 -83.3530 244° Southwest 459 528 30,000  Level FlightAware
12:26AM 39.5070 -83.4430 244° Southwest 459 528 30,000  Level FlightAware
12:26AM 39.4770 -83.5210 244° Southwest 457 526 30,000  Level FlightAware
12:27AM 39.4400 -83.6080 241° Southwest 456 525 30,000  Level FlightAware
12:27AM 39.4000 -83.6920 238° Southwest 457 526 30,000  Level FlightAware
12:28AM 39.3630 -83.7670 237° Southwest 457 526 30,000  Level FlightAware
12:29AM 39.3220 -83.8490 237° Southwest 457 526 30,000  Level FlightAware
12:29AM 39.2800 -83.9330 237° Southwest 457 526 30,000  Level FlightAware
12:30AM 39.2390 -84.0140 237° Southwest 457 526 30,000  Level FlightAware
12:30AM 39.2040 -84.0840 237° Southwest 457 526 30,000  Level FlightAware
12:31AM 39.1630 -84.1660 237° Southwest 456 525 30,000 -660 Level FlightAware
12:32AM 39.1060 -84.2780 237° Southwest 446 513 29,100 -2,400 Descending FlightAware
12:32AM 39.0680 -84.3540 237° Southwest 453 521 26,700 -3,840 Descending FlightAware
12:33AM 39.0300 -84.4300 237° Southwest 461 531 24,700 -2,400 Descending FlightAware
12:34AM 38.9780 -84.5330 237° Southwest 463 533 23,500 -900 Descending FlightAware
12:34AM 38.9420 -84.6040 237° Southwest 463 533 23,500 -4,380 Level FlightAware
12:35AM 38.9000 -84.6850 236° Southwest 441 507 18,500 -4,200 Descending FlightAware
12:35AM 38.8630 -84.7580 237° Southwest 441 507 18,500 -3,180 Level FlightAware
12:36AM 38.8110 -84.8580 236° Southwest 416 479 14,300 -4,680 Descending FlightAware
12:37AM 38.7730 -84.9280 235° Southwest 408 470 12,600 -2,760 Descending FlightAware
12:37AM 38.7270 -84.9840 224° Southwest 398 458 11,100 -2,340 Descending FlightAware
12:38AM 38.6730 -85.0350 216° Southwest 378 435 9,900 -1,560 Descending FlightAware
12:38AM 38.6550 -85.0520 216° Southwest 378 435 9,800 -180 Descending FlightAware
12:39AM 38.6110 -85.0950 217° Southwest 371 427 9,800  Level FlightAware
12:39AM 38.5710 -85.1340 217° Southwest 345 397 9,800  Level FlightAware
12:39AM 38.5490 -85.1540 215° Southwest 336 387 9,800  Level FlightAware
12:40AM 38.5260 -85.1760 217° Southwest 338 389 9,800  Level FlightAware
12:40AM 38.5000 -85.2010 217° Southwest 338 389 9,800  Level FlightAware
12:40AM 38.4800 -85.2200 217° Southwest 339 390 9,800  Level FlightAware
12:41AM 38.4580 -85.2410 217° Southwest 340 391 9,800  Level FlightAware
12:41AM 38.4300 -85.2680 217° Southwest 339 390 9,800  Level FlightAware
12:41AM 38.3970 -85.2990 216° Southwest 308 354 9,800  Level FlightAware
12:42AM 38.3740 -85.3210 217° Southwest 289 333 9,800 -600 Level FlightAware
12:42AM 38.3480 -85.3460 217° Southwest 277 319 9,400 -1,260 Descending FlightAware
12:43AM 38.3270 -85.3650 215° Southwest 277 319 8,900 -1,380 Descending FlightAware
12:43AM 38.3090 -85.3830 218° Southwest 277 319 8,500 -1,440 Descending FlightAware
12:43AM 38.2840 -85.4060 216° Southwest 277 319 7,900 -1,620 Descending FlightAware
12:43AM 38.2680 -85.4220 218° Southwest 279 321 7,500 -1,500 Descending FlightAware
12:44AM 38.2470 -85.4420 217° Southwest 278 320 7,000 -1,500 Descending FlightAware
12:44AM 38.2350 -85.4540 218° Southwest 277 319 6,700 -1,320 Descending FlightAware
12:44AM 38.2150 -85.4730 217° Southwest 275 316 6,300 -1,260 Descending FlightAware
12:45AM 38.1890 -85.4960 215° Southwest 272 313 5,800 -1,260 Descending FlightAware
12:45AM 38.1690 -85.5150 217° Southwest 269 310 5,400 -1,200 Descending FlightAware
12:45AM 38.1490 -85.5340 217° Southwest 268 308 5,000 -1,380 Descending FlightAware
12:46AM 38.1290 -85.5520 215° Southwest 267 307 4,500 -1,500 Descending FlightAware
12:46AM 38.1190 -85.5580 205° Southwest 266 306 4,300 -1,080 Descending FlightAware
12:46AM 38.1110 -85.5610 196° South 264 304 4,200 -1,380 Descending FlightAware
12:46AM 38.0860 -85.5630 184° South 264 304 3,700 -1,560 Descending FlightAware
12:47AM 38.0680 -85.5650 185° South 264 304 3,300 -1,320 Descending FlightAware
12:47AM 38.0390 -85.5680 185° South 261 300 2,900 -720 Descending FlightAware
12:47AM 38.0150 -85.5710 186° South 243 280 2,800 -180 Descending FlightAware
12:48AM 37.9940 -85.5740 186° South 221 254 2,800  Level FlightAware
12:48AM 37.9800 -85.5770 190° South 210 242 2,800  Level FlightAware
12:48AM 37.9690 -85.5840 207° Southwest 206 237 2,800  Level FlightAware
12:48AM 37.9670 -85.5870 230° Southwest 206 237 2,800  Level FlightAware
12:48AM 37.9620 -85.6010 246° West 208 239 2,800  Level FlightAware
12:49AM 37.9700 -85.6300 289° West 208 239 2,800  Level FlightAware
12:49AM 37.9830 -85.6460 316° Northwest 206 237 2,800  Level FlightAware
12:49AM 37.9950 -85.6590 320° Northwest 207 238 2,800  Level FlightAware
12:50AM 38.0100 -85.6690 332° Northwest 196 226 2,800  Level FlightAware
12:50AM 38.0270 -85.6760 342° North 184 212 2,800  Level FlightAware
12:50AM 38.0430 -85.6830 341° North 172 198 2,800 -480 Level FlightAware
12:51AM 38.0590 -85.6880 346° North 168 193 2,500 -960 Descending FlightAware
12:51AM 38.0760 -85.6940 344° North 155 178 2,100 -960 Descending FlightAware
12:51AM 38.0900 -85.6980 347° North 149 171 1,800 -780 Descending FlightAware
12:52AM 38.1040 -85.7030 344° North 140 161 1,600 -780 Descending FlightAware
12:52AM 38.1160 -85.7070 345° North 131 151 1,300 -720 Descending FlightAware
12:53AM 38.1320 -85.7130 344° North 128 147 1,000 -600 Descending FlightAware
12:53AM 38.1420 -85.7160 347° North 128 147 800 -720 Descending FlightAware
12:53AM 38.1520 -85.7190 347° North 127 146 600 -840 Descending FlightAware
12:54AM 38.1660 -85.7240 344° North 130 150 300 -780 Descending FlightAware
12:54AM 38.1760 -85.7280 343° North 78 90 -900 Descending FlightAware